Regional Weather Roundup
Issued by NWS

Home | Current Version | Previous Version | Graphics & Text | Print | Product List | Glossary On
Versions: 1 2 3 4 5 6 7 8 9 10 11 12 13 14 15 16 17 18 19 20 21 22 23 24 25 26 27 28 29 30 31 32 33 34 35 36 37 38 39 40 41 42 43 44 45 46 47 48 49 50
000
ASUS43 KMKX 291000
RWRWI

WISCONSIN REGIONAL WEATHER ROUNDUP
NATIONAL WEATHER SERVICE MILWAUKEE/SULLIVAN WI
500 AM CDT WED JUL 29 2015

NOTE: "FAIR" INDICATES FEW OR NO CLOUDS BELOW 12,000 FEET WITH NO
SIGNIFICANT WEATHER AND/OR OBSTRUCTIONS TO VISIBILITY.

WIZ001-002-006>008-014>016-023>028-291100-
NORTHWEST WISCONSIN

CITY           SKY/WX    TMP DP  RH WIND       PRES   REMARKS
SUPERIOR ARPT  CLEAR     64  52  64 SW14G20   29.72F
ASHLAND        CLEAR     66  51  58 SW13G22   29.76F
HAYWARD        CLEAR     67  50  54 SW13      29.83F
SIREN          CLEAR     65  53  64 SW13G20   29.83F
CUMBERLAND     CLEAR     61  54  77 SW8       29.88F
RICE LAKE      CLEAR     63  54  71 SW6       29.90S
CHETEK         CLEAR     65  55  70 SW9       29.90S
LADYSMITH      CLEAR     63  56  79 SW6       29.90F
EAU CLAIRE     PTCLDY    65  58  78 SW7       29.91R
MENOMONIE      CLEAR     67  55  65 SW10      29.91S
NEW RICHMOND   CLEAR     63  56  79 SW8       29.90F
OSCEOLA        CLEAR     66  53  64 SW9       29.91F
$$

WIZ003>005-009-010-017-018-291100-
NORTH CENTRAL WISCONSIN

CITY           SKY/WX    TMP DP  RH WIND       PRES   REMARKS
MANITOWISH WTR CLEAR     64  55  74 SW8       29.86S
ARBOR VITAE    PTCLDY    67  55  66 W9        29.87F
WOODRUFF       PTCLDY    67  55  66 W9        29.87F
RHINELANDER    MOCLDY    66  55  67 W9        29.89S
EAGLE RIVER    MOCLDY    67  54  61 W10       29.86S
LAND O LAKES   PTCLDY    68  54  60 SW8       29.86S
PHILLIPS       CLEAR     65  56  73 SW5       29.88S
TOMAHAWK       MOCLDY    66  56  68 W3        29.90S
MEDFORD        MOCLDY    64  58  79 SW6       29.91S
MERRILL        NOT AVBL
$$

WIZ029-030-035-036-043>047-291100-
CENTRAL WISCONSIN

CITY           SKY/WX    TMP DP  RH WIND       PRES   REMARKS
WAUSAU         CLOUDY    71  56  58 W9        29.89S
MOSINEE        CLOUDY    70  59  68 W8        29.92S
MARSHFIELD     CLOUDY    68  57  68 W8        29.92S
STEVENS POINT  CLOUDY    73  56  57 W5        29.92R
WAUPACA        CLOUDY    77  70  77 W10G16    29.89S
WAUTOMA        NOT AVBL
WISC RAPIDS    CLOUDY    72  58  61 W6        29.93S
CAMP DOUGLAS   NOT AVBL
$$

WIZ011>013-019>022-031-037>040-048>050-291100-
NORTHEAST WISCONSIN

CITY           SKY/WX    TMP DP  RH WIND       PRES   REMARKS
ANTIGO         CLOUDY    70  58  66 W8        29.90S
SHAWANO        CLOUDY    75  70  83 SW6       29.87R
OCONTO         CLOUDY    72  72 100 SW5       29.83F
STURGEON BAY   CLOUDY    72  66  83 S8        29.87F
GREEN BAY      CLOUDY    75  71  87 W7        29.86S
MANITOWOC      NOT AVBL
APPLETON       CLOUDY    73  70  88 W10       29.89S
CLINTONVILLE   CLOUDY    73  68  83 W7        29.87R
OSHKOSH        CLOUDY    76  69  79 W9        29.89R
$$

WIZ032>034-041-042-053>061-291100-
SOUTHWEST WISCONSIN

CITY           SKY/WX    TMP DP  RH WIND       PRES   REMARKS
LA CROSSE      CLOUDY    72  59  63 W10       29.96R
SPARTA         CLOUDY    70  62  76 W6        29.95R
VIROQUA        CLOUDY    69  63  79 W6        29.98R
BOSCOBEL       CLOUDY    74  68  81 SW3       29.97R
PRAIRIE DU CHI CLOUDY    74  63  68 W5        29.98R
PLATTEVILLE    CLOUDY    72  71  97 W8        29.99R
$$

WIZ056-057-062-063-064-067-068-291100-
SOUTH CENTRAL WISCONSIN

CITY           SKY/WX    TMP DP  RH WIND       PRES   REMARKS
REEDSBURG      CLOUDY    73  70  89 W7        29.94R
BARABOO/DELLS  CLOUDY    74  68  81 W6        29.95R
LONE ROCK      NOT AVBL
MINERAL POINT  LGT RAIN  73  72  94 SW8       29.99R
MADISON        LGT RAIN  74  71  91 NW5       29.94R
MIDDLETON      CLOUDY    75  73  95 W5        29.95R
WATERTOWN      DRIZZLE   74  74 100 SW6       29.93R
MONROE         CLOUDY    73  70  88 W8        29.95R
JANESVILLE     CLOUDY    73  72  94 CALM      29.94R
$$

WIZ051-052-058>065-066-070>072-291100-
SOUTHEAST WISCONSIN

CITY           SKY/WX    TMP DP  RH WIND       PRES   REMARKS
MILWAUKEE      CLOUDY    77  71  82 W8        29.90S
WAUKESHA       CLOUDY    72  70  94 SW3       29.93S
MILWAUKEE/TIMM CLOUDY    73  68  83 SW5       29.91S
RACINE         CLOUDY    76  71  85 SW5       29.93R
BURLINGTON     CLOUDY    72  70  95 SW3       29.92F
KENOSHA        CLOUDY    75  71  87 SW6       29.92S
FOND DU LAC    CLOUDY    76  72  87 SW8       29.90R
SHEBOYGAN      CLOUDY    73  71  93 SW7       29.89F FOG
WEST BEND      CLOUDY    73  70  88 CALM      29.91S
JUNEAU         CLOUDY    73  72  97 SW6       29.93R FOG
$$

LSZ147-162-291100-
LAKE SUPERIOR

STATION/POSITION TIME  TEMP    WIND        PRES    WAVE
                       AIR SEA DIR/SP/G            HT/PER
                 (UTC) (F)     (DEG/KT/KT) (MB)    (FT/S)
W MID LAKE BUOY  0850   67 62  210/ 16/ 17 1005.8F   2/ 4
DEVILS ISLAND    0900   71     220/ 23/ 31 1006.0F
PORT WING        0900   70     200/ 12/ 20 1007.1F
SAXON HARBOR     0940   71                 1007.8F
$$

LMZ867-665-643>646-291100-
LAKE MICHIGAN

STATION/POSITION TIME  TEMP    WIND        PRES    WAVE
                       AIR SEA DIR/SP/G            HT/PER
                 (UTC) (F)     (DEG/KT/KT) (MB)    (FT/S)
CHAMBERS ISLAND  0900   76     180/  6/ 11 1010.2S
S GREEN BAY BUOY 0900   76 75  200/ 14/ 17 1012.3R
N MID LAKE BUOY  0850   73 70  180/ 14/ 16 1009.8F   1/ 3
NORTHPORT PIER   0900   72     180/  4/  6 1010.2S
SISTER BAY       0914   73     190/ 10/ 11   N/A
ALGOMA LAKESHORE 0912          230/  4/  7   N/A
KEWAUNEE LAKESHO 0900   72     230/  4/  8 1011.0R
SHEBOYGAN LAKESH 0900   72     240/  5/  7 1012.2R
PORT WASHINGTON  0940   76     180/  5/  8 1012.5F
ATWATER BUOY     0900   74     220/  4/  4 1013.7R
MILWAUKEE LAKESH 0900   77     240/  8/  9   N/A
KENOSHA   LAKESH 0900   79     230/  5/  8 1012.5S
$$

TC  - TEMPERATURE IN CELSIUS
VSB - VISIBILITY IN STATUTE MILES
WCI - WIND CHILL INDEX
HX  - HEAT INDEX




USA.gov is the U.S. government's official web portal to all federal, state and local government web resources and services.